BCS3164 EKCH-ENBR

Flight info

Callsign BCS3164
Flight time 1h 19m
Altitude 32000
Route GOLGA DCT RETKA DCT PESUR
Aircraft B73F/M-SDE2E3FGHIRWXY/LB1

Departure

Time 2026-04-26 13:02
Airport Copenhagen Kastrup Airport (EKCH)

Arrival

Time 2026-04-26 14:21
Airport Bergen Airport, Flesland (ENBR)
Time Latitude Longitude Altitude Speed Heading
2026-04-26 12:45 55.62893 12.63421 16 ft 0 kts 356°
2026-04-26 12:54 55.62892 12.63421 16 ft 1 kts 356°
2026-04-26 12:54 55.62875 12.63425 16 ft 3 kts 341°
2026-04-26 12:54 55.62859 12.63441 16 ft 3 kts 301°
2026-04-26 12:55 55.62856 12.63464 16 ft 1 kts 251°
2026-04-26 12:55 55.62856 12.63467 16 ft 1 kts 249°
2026-04-26 12:56 55.62849 12.63434 16 ft 5 kts 244°
2026-04-26 12:57 55.62814 12.63375 18 ft 9 kts 214°
2026-04-26 12:57 55.62758 12.63298 17 ft 10 kts 243°
2026-04-26 12:57 55.62782 12.63173 16 ft 13 kts 304°
2026-04-26 12:58 55.62720 12.63083 15 ft 0 kts 124°
2026-04-26 13:01 55.62714 12.63099 17 ft 9 kts 124°
2026-04-26 13:02 55.62524 12.63617 18 ft 97 kts 123°
2026-04-26 13:02 55.62000 12.65037 59 ft 171 kts 123°
2026-04-26 13:02 55.61320 12.66850 965 ft 177 kts 124°
2026-04-26 13:02 55.60621 12.68706 2032 ft 183 kts 124°
2026-04-26 13:03 55.59884 12.70709 2643 ft 210 kts 122°
2026-04-26 13:03 55.59285 12.73139 3251 ft 221 kts 95°
2026-04-26 13:03 55.59533 12.75817 3864 ft 227 kts 57°
2026-04-26 13:03 55.60623 12.77738 4718 ft 222 kts 21°
2026-04-26 13:04 55.62112 12.78328 5639 ft 221 kts
2026-04-26 13:04 55.63661 12.78579 6662 ft 223 kts
2026-04-26 13:04 55.65211 12.78809 7725 ft 224 kts
2026-04-26 13:04 55.66773 12.79044 8706 ft 227 kts
2026-04-26 13:05 55.68377 12.78760 9312 ft 246 kts 336°
2026-04-26 13:05 55.69712 12.76740 9981 ft 260 kts 310°
2026-04-26 13:05 55.70836 12.74202 10895 ft 267 kts 309°
2026-04-26 13:05 55.72031 12.71467 11234 ft 295 kts 309°
2026-04-26 13:06 55.73350 12.68451 11459 ft 322 kts 309°
2026-04-26 13:06 55.74747 12.65267 11941 ft 338 kts 309°
2026-04-26 13:06 55.76198 12.61972 12865 ft 339 kts 310°
2026-04-26 13:06 55.77655 12.58678 13803 ft 340 kts 310°
2026-04-26 13:07 55.79120 12.55371 14678 ft 342 kts 310°
2026-04-26 13:07 55.80607 12.52021 15486 ft 346 kts 310°
2026-04-26 13:07 55.82102 12.48653 16317 ft 347 kts 310°
2026-04-26 13:07 55.83601 12.45275 17132 ft 349 kts 310°
2026-04-26 13:08 55.85111 12.41864 17890 ft 351 kts 310°
2026-04-26 13:08 55.86632 12.38426 18571 ft 355 kts 310°
2026-04-26 13:08 55.88167 12.34953 19230 ft 358 kts 310°
2026-04-26 13:08 55.89696 12.31487 19865 ft 362 kts 310°
2026-04-26 13:09 55.91260 12.27940 20472 ft 366 kts 310°
2026-04-26 13:09 55.92842 12.24343 21092 ft 368 kts 310°
2026-04-26 13:09 55.94429 12.20729 21664 ft 372 kts 309°
2026-04-26 13:09 55.96029 12.17079 22201 ft 375 kts 309°
2026-04-26 13:10 55.97642 12.13395 22770 ft 378 kts 309°
2026-04-26 13:10 55.99265 12.09684 23277 ft 381 kts 309°
2026-04-26 13:10 56.00900 12.05942 23767 ft 383 kts 309°
2026-04-26 13:10 56.02645 12.02317 24242 ft 386 kts 315°
2026-04-26 13:11 56.04646 11.99099 24702 ft 389 kts 321°
2026-04-26 13:11 56.06874 11.96331 25136 ft 393 kts 328°
2026-04-26 13:11 56.09264 11.93906 25571 ft 396 kts 329°
2026-04-26 13:11 56.11683 11.91498 25987 ft 398 kts 329°
2026-04-26 13:12 56.14113 11.89071 26368 ft 401 kts 328°
2026-04-26 13:12 56.16564 11.86607 26739 ft 404 kts 328°
2026-04-26 13:12 56.19017 11.84122 27084 ft 407 kts 328°
2026-04-26 13:12 56.21494 11.81599 27403 ft 410 kts 328°
2026-04-26 13:13 56.23977 11.79063 27771 ft 411 kts 328°
2026-04-26 13:13 56.26461 11.76521 28266 ft 409 kts 328°
2026-04-26 13:13 56.28929 11.73994 28783 ft 407 kts 328°
2026-04-26 13:13 56.31384 11.71475 29266 ft 406 kts 328°
2026-04-26 13:14 56.33787 11.68923 29661 ft 406 kts 325°
2026-04-26 13:14 56.36104 11.66036 30094 ft 404 kts 323°
2026-04-26 13:14 56.38391 11.63086 30572 ft 403 kts 322°
2026-04-26 13:14 56.40657 11.60129 31026 ft 401 kts 322°
2026-04-26 13:15 56.42920 11.57170 31477 ft 400 kts 322°
2026-04-26 13:15 56.45168 11.54236 31930 ft 398 kts 322°
2026-04-26 13:15 56.47415 11.51306 32266 ft 399 kts 322°
2026-04-26 13:15 56.48905 11.49366 32269 ft 399 kts 322°
2026-04-26 13:16 56.54167 11.42513 32297 ft 398 kts 322°
2026-04-26 13:16 56.58673 11.36631 32301 ft 399 kts 322°
2026-04-26 13:17 56.65445 11.27763 32295 ft 400 kts 322°
2026-04-26 13:18 56.72190 11.18890 32295 ft 401 kts 322°
2026-04-26 13:19 56.78965 11.09938 32295 ft 401 kts 322°
2026-04-26 13:19 56.83482 11.03945 32296 ft 401 kts 322°
2026-04-26 13:20 56.88003 10.97929 32295 ft 402 kts 322°
2026-04-26 13:20 56.92525 10.91898 32293 ft 402 kts 321°
2026-04-26 13:21 56.97042 10.85849 32296 ft 402 kts 321°
2026-04-26 13:21 57.01563 10.79777 32296 ft 403 kts 321°
2026-04-26 13:22 57.06082 10.73690 32295 ft 403 kts 321°
2026-04-26 13:22 57.10576 10.67618 32295 ft 403 kts 321°
2026-04-26 13:23 57.15101 10.61481 32295 ft 403 kts 321°
2026-04-26 13:23 57.19619 10.55340 32295 ft 403 kts 321°
2026-04-26 13:24 57.24144 10.49170 32296 ft 404 kts 321°
2026-04-26 13:24 57.28638 10.43025 32297 ft 404 kts 321°
2026-04-26 13:25 57.33156 10.36825 32294 ft 405 kts 321°
2026-04-26 13:25 57.37675 10.30602 32296 ft 405 kts 321°
2026-04-26 13:26 57.42204 10.24348 32292 ft 405 kts 321°
2026-04-26 13:26 57.46732 10.18076 32293 ft 406 kts 321°
2026-04-26 13:27 57.51254 10.11791 32297 ft 406 kts 321°
2026-04-26 13:27 57.55777 10.05485 32297 ft 406 kts 321°
2026-04-26 13:28 57.60259 9.99215 32293 ft 406 kts 321°
2026-04-26 13:28 57.64784 9.92865 32286 ft 407 kts 321°
2026-04-26 13:29 57.69305 9.86505 32287 ft 406 kts 321°
2026-04-26 13:29 57.73823 9.80124 32284 ft 407 kts 320°
2026-04-26 13:30 57.78337 9.73727 32283 ft 407 kts 320°
2026-04-26 13:30 57.82825 9.67351 32277 ft 407 kts 320°
2026-04-26 13:31 57.87336 9.60919 32277 ft 407 kts 320°
2026-04-26 13:31 57.91845 9.54469 32277 ft 407 kts 320°
2026-04-26 13:32 57.96352 9.48002 32275 ft 407 kts 320°
2026-04-26 13:32 58.00137 9.42707 32275 ft 408 kts 323°
2026-04-26 13:33 58.05765 9.36020 32277 ft 409 kts 326°
2026-04-26 13:33 58.09802 9.31351 32267 ft 409 kts 326°
2026-04-26 13:34 58.14649 9.25693 32266 ft 409 kts 326°
2026-04-26 13:34 58.19449 9.20025 32268 ft 408 kts 325°
2026-04-26 13:35 58.24269 9.14294 32267 ft 408 kts 325°
2026-04-26 13:35 58.29091 9.08540 32268 ft 408 kts 325°
2026-04-26 13:36 58.33901 9.02784 32267 ft 409 kts 325°
2026-04-26 13:36 58.38687 8.97035 32265 ft 408 kts 325°
2026-04-26 13:37 58.43494 8.91240 32268 ft 409 kts 325°
2026-04-26 13:37 58.48307 8.85420 32272 ft 409 kts 325°
2026-04-26 13:38 58.53130 8.79569 32262 ft 410 kts 325°
2026-04-26 13:38 58.57951 8.73703 32272 ft 411 kts 325°
2026-04-26 13:39 58.62779 8.67808 32263 ft 411 kts 325°
2026-04-26 13:39 58.67606 8.61894 32271 ft 411 kts 325°
2026-04-26 13:40 58.72400 8.56004 32261 ft 412 kts 325°
2026-04-26 13:40 58.77228 8.50050 32256 ft 412 kts 325°
2026-04-26 13:41 58.82049 8.44084 32251 ft 412 kts 325°
2026-04-26 13:41 58.86867 8.38102 32260 ft 411 kts 325°
2026-04-26 13:42 58.91677 8.32110 32255 ft 411 kts 325°
2026-04-26 13:42 58.96479 8.26110 32259 ft 410 kts 325°
2026-04-26 13:43 59.01272 8.20098 32252 ft 410 kts 324°
2026-04-26 13:43 59.06060 8.14072 32257 ft 410 kts 325°
2026-04-26 13:44 59.10809 8.08077 32258 ft 409 kts 324°
2026-04-26 13:44 59.15582 8.02031 32254 ft 409 kts 324°
2026-04-26 13:45 59.20353 7.95967 32269 ft 409 kts 324°
2026-04-26 13:45 59.25134 7.89867 32277 ft 411 kts 324°
2026-04-26 13:46 59.29895 7.83774 32273 ft 412 kts 324°
2026-04-26 13:46 59.34692 7.77615 32275 ft 412 kts 324°
2026-04-26 13:47 59.39492 7.71429 32272 ft 413 kts 324°
2026-04-26 13:47 59.44287 7.65229 32280 ft 412 kts 324°
2026-04-26 13:48 59.49079 7.59012 32270 ft 412 kts 324°
2026-04-26 13:48 59.53845 7.52807 32279 ft 413 kts 324°
2026-04-26 13:49 59.58642 7.46540 32285 ft 413 kts 324°
2026-04-26 13:49 59.63426 7.40268 32291 ft 413 kts 324°
2026-04-26 13:50 59.68221 7.33961 32298 ft 413 kts 324°
2026-04-26 13:50 59.72961 7.27702 32295 ft 413 kts 324°
2026-04-26 13:51 59.77747 7.21363 32213 ft 414 kts 324°
2026-04-26 13:51 59.80169 7.18145 31381 ft 421 kts 324°
2026-04-26 13:51 59.82596 7.14915 30508 ft 419 kts 324°
2026-04-26 13:51 59.85014 7.11691 29522 ft 419 kts 324°
2026-04-26 13:52 59.87438 7.08455 28517 ft 419 kts 324°
2026-04-26 13:52 59.89840 7.05244 27798 ft 412 kts 324°
2026-04-26 13:52 59.92198 7.02086 27046 ft 406 kts 324°
2026-04-26 13:52 59.94527 6.98960 26303 ft 400 kts 323°
2026-04-26 13:53 59.96821 6.95875 25566 ft 395 kts 323°
2026-04-26 13:53 59.99089 6.92820 24836 ft 389 kts 323°
2026-04-26 13:53 60.01295 6.89845 24119 ft 384 kts 323°
2026-04-26 13:53 60.03493 6.86873 23409 ft 379 kts 323°
2026-04-26 13:54 60.05665 6.83932 22709 ft 374 kts 323°
2026-04-26 13:54 60.07803 6.81032 22002 ft 369 kts 323°
2026-04-26 13:54 60.09916 6.78162 21290 ft 364 kts 323°
2026-04-26 13:55 60.14066 6.72511 19922 ft 356 kts 324°
2026-04-26 13:55 60.15443 6.70633 19474 ft 353 kts 324°
2026-04-26 13:55 60.20112 6.64251 17935 ft 344 kts 324°
2026-04-26 13:56 60.21949 6.61230 17237 ft 341 kts 311°
2026-04-26 13:56 60.23218 6.57249 16563 ft 333 kts 296°
2026-04-26 13:56 60.23942 6.52957 15855 ft 325 kts 284°
2026-04-26 13:56 60.24096 6.48438 15259 ft 322 kts 273°
2026-04-26 13:57 60.23866 6.43887 14617 ft 337 kts 258°
2026-04-26 13:57 60.22674 6.39659 13967 ft 364 kts 232°
2026-04-26 13:57 60.20566 6.36685 13351 ft 379 kts 206°
2026-04-26 13:57 60.17983 6.35802 13052 ft 379 kts 179°
2026-04-26 13:58 60.15420 6.36975 12789 ft 383 kts 156°
2026-04-26 13:58 60.13273 6.40152 12536 ft 387 kts 130°
2026-04-26 13:58 60.11951 6.44805 12284 ft 384 kts 104°
2026-04-26 13:58 60.11698 6.50013 12028 ft 371 kts 78°
2026-04-26 13:59 60.12525 6.54763 11747 ft 355 kts 52°
2026-04-26 13:59 60.14214 6.58124 11542 ft 344 kts 29°
2026-04-26 13:59 60.16239 6.60678 11311 ft 344 kts 28°
2026-04-26 14:00 60.22708 6.62424 10515 ft 317 kts 324°
2026-04-26 14:00 60.24081 6.59120 10238 ft 306 kts 294°
2026-04-26 14:00 60.24398 6.56405 10067 ft 301 kts 273°
2026-04-26 14:01 60.24201 6.50935 9732 ft 282 kts 268°
2026-04-26 14:01 60.24064 6.47106 9469 ft 268 kts 267°
2026-04-26 14:01 60.23931 6.43404 9222 ft 263 kts 267°
2026-04-26 14:01 60.23810 6.39813 8965 ft 258 kts 266°
2026-04-26 14:02 60.23694 6.36243 8715 ft 254 kts 267°
2026-04-26 14:02 60.23584 6.32726 8463 ft 250 kts 267°
2026-04-26 14:02 60.23478 6.29259 8207 ft 247 kts 267°
2026-04-26 14:02 60.23375 6.25845 8045 ft 241 kts 267°
2026-04-26 14:03 60.23275 6.22498 8018 ft 238 kts 267°
2026-04-26 14:03 60.23175 6.19193 8016 ft 237 kts 267°
2026-04-26 14:03 60.23076 6.15884 8007 ft 238 kts 267°
2026-04-26 14:03 60.22975 6.12548 8018 ft 240 kts 267°
2026-04-26 14:04 60.22873 6.09175 8018 ft 242 kts 267°
2026-04-26 14:04 60.22769 6.05798 8010 ft 242 kts 267°
2026-04-26 14:04 60.22666 6.02429 8026 ft 253 kts 267°
2026-04-26 14:04 60.22552 5.98741 8022 ft 268 kts 267°
2026-04-26 14:05 60.22435 5.95025 8002 ft 263 kts 267°
2026-04-26 14:05 60.22319 5.91384 8011 ft 258 kts 267°
2026-04-26 14:05 60.22203 5.87800 8000 ft 257 kts 267°
2026-04-26 14:05 60.21913 5.84264 7952 ft 260 kts 248°
2026-04-26 14:06 60.21037 5.81095 7958 ft 260 kts 240°
2026-04-26 14:06 60.20115 5.77961 7961 ft 260 kts 240°
2026-04-26 14:06 60.19170 5.74891 7933 ft 256 kts 231°
2026-04-26 14:06 60.17785 5.72821 7918 ft 246 kts 202°
2026-04-26 14:07 60.16134 5.72248 7924 ft 241 kts 178°
2026-04-26 14:07 60.14514 5.73004 7933 ft 240 kts 161°
2026-04-26 14:07 60.12922 5.74155 7935 ft 244 kts 162°
2026-04-26 14:07 60.11243 5.74654 7949 ft 246 kts 182°
2026-04-26 14:08 60.09520 5.74587 7938 ft 247 kts 182°
2026-04-26 14:08 60.07829 5.74559 7944 ft 242 kts 181°
2026-04-26 14:08 60.06218 5.74251 7839 ft 225 kts 199°
2026-04-26 14:08 60.04806 5.73204 7727 ft 210 kts 202°
2026-04-26 14:09 60.03472 5.72210 7556 ft 198 kts 201°
2026-04-26 14:09 60.02208 5.71284 7378 ft 188 kts 201°
2026-04-26 14:09 60.01055 5.70234 7200 ft 176 kts 220°
2026-04-26 14:09 60.00158 5.68666 7130 ft 176 kts 222°
2026-04-26 14:10 59.99217 5.67089 7027 ft 174 kts 221°
2026-04-26 14:10 59.98278 5.65530 6815 ft 175 kts 221°
2026-04-26 14:10 59.97351 5.64000 6648 ft 170 kts 221°
2026-04-26 14:10 59.96590 5.62217 6439 ft 169 kts 245°
2026-04-26 14:11 59.95477 5.58041 5877 ft 172 kts 243°
2026-04-26 14:11 59.94900 5.55961 5635 ft 169 kts 242°
2026-04-26 14:11 59.94414 5.53851 5349 ft 166 kts 264°
2026-04-26 14:12 59.94674 5.51706 5016 ft 163 kts 309°
2026-04-26 14:12 59.95571 5.50286 4758 ft 165 kts 324°
2026-04-26 14:12 59.96497 5.48939 4603 ft 162 kts 323°
2026-04-26 14:12 59.97417 5.47596 4436 ft 166 kts 323°
2026-04-26 14:13 59.99189 5.44992 4236 ft 157 kts 323°
2026-04-26 14:13 60.00079 5.43692 4166 ft 160 kts 323°
2026-04-26 14:13 60.00979 5.42380 4073 ft 160 kts 323°
2026-04-26 14:14 60.01881 5.41065 3976 ft 160 kts 323°
2026-04-26 14:14 60.02783 5.39750 3863 ft 160 kts 324°
2026-04-26 14:14 60.03684 5.38439 3774 ft 159 kts 323°
2026-04-26 14:14 60.04568 5.37156 3683 ft 160 kts 323°
2026-04-26 14:15 60.05466 5.35846 3586 ft 160 kts 324°
2026-04-26 14:15 60.06366 5.34535 3462 ft 158 kts 324°
2026-04-26 14:15 60.07248 5.33252 3377 ft 157 kts 324°
2026-04-26 14:15 60.08130 5.31968 3292 ft 157 kts 323°
2026-04-26 14:16 60.09015 5.30679 3197 ft 157 kts 324°
2026-04-26 14:16 60.09899 5.29391 3085 ft 157 kts 324°
2026-04-26 14:16 60.10860 5.28388 3014 ft 158 kts 345°
2026-04-26 14:16 60.11915 5.27861 3006 ft 158 kts 345°
2026-04-26 14:17 60.12979 5.27382 2995 ft 156 kts 348°
2026-04-26 14:17 60.14056 5.26975 2934 ft 158 kts 349°
2026-04-26 14:17 60.15155 5.26591 2741 ft 160 kts 349°
2026-04-26 14:17 60.16243 5.26222 2529 ft 156 kts 349°
2026-04-26 14:18 60.17280 5.25873 2333 ft 145 kts 349°
2026-04-26 14:18 60.18269 5.25539 2149 ft 147 kts 349°
2026-04-26 14:18 60.19263 5.25205 1969 ft 142 kts 349°
2026-04-26 14:18 60.20228 5.24879 1773 ft 142 kts 348°
2026-04-26 14:19 60.21221 5.24545 1591 ft 143 kts 348°
2026-04-26 14:19 60.22191 5.24219 1384 ft 141 kts 348°
2026-04-26 14:19 60.23158 5.23893 1207 ft 141 kts 348°
2026-04-26 14:19 60.24120 5.23553 1037 ft 140 kts 348°
2026-04-26 14:20 60.25091 5.23200 862 ft 141 kts 348°
2026-04-26 14:20 60.26064 5.22908 694 ft 142 kts 350°
2026-04-26 14:20 60.26716 5.22698 550 ft 144 kts 348°
2026-04-26 14:20 60.27719 5.22364 346 ft 148 kts 349°
2026-04-26 14:21 60.28555 5.22081 171 ft 143 kts 351°
2026-04-26 14:21 60.29291 5.21841 161 ft 122 kts 350°
2026-04-26 14:21 60.30117 5.21556 160 ft 56 kts 350°
2026-04-26 14:21 60.30368 5.21473 167 ft 16 kts 356°
2026-04-26 14:22 60.30422 5.21558 170 ft 16 kts 65°
2026-04-26 14:22 60.30431 5.21755 172 ft 15 kts 139°
2026-04-26 14:22 60.30316 5.21811 168 ft 19 kts 171°
2026-04-26 14:22 60.30169 5.21860 163 ft 22 kts 170°
2026-04-26 14:23 60.30014 5.21912 156 ft 23 kts 170°
2026-04-26 14:23 60.29850 5.21967 150 ft 23 kts 171°
2026-04-26 14:23 60.29702 5.22018 147 ft 19 kts 171°
2026-04-26 14:23 60.29581 5.22059 149 ft 17 kts 167°
2026-04-26 14:24 60.29469 5.22097 155 ft 16 kts 171°
2026-04-26 14:24 60.29362 5.22133 158 ft 15 kts 171°
2026-04-26 14:24 60.29259 5.22167 162 ft 15 kts 172°
2026-04-26 14:24 60.29140 5.22209 162 ft 18 kts 169°
2026-04-26 14:25 60.29077 5.22280 163 ft 9 kts 99°
2026-04-26 14:25 60.29041 5.22376 166 ft 10 kts 138°
2026-04-26 14:25 60.29035 5.22502 170 ft 9 kts 82°
2026-04-26 14:25 60.29050 5.22605 173 ft 7 kts 47°
2026-04-26 14:26 60.29088 5.22656 175 ft 5 kts 32°
2026-04-26 14:26 60.29095 5.22666 175 ft 0 kts 32°